{"data":{"norad_id":48284,"intl_designator":"2021-036J","name":"STARLINK-2564","alt_names":[],"object_type":"PAYLOAD","status":"ACTIVE","operator":null,"country":"US","launch_date":"2021-04-29","launch_site_code":"AFETR","launch_vehicle":null,"mission":null,"orbit_class":"UNKNOWN","rcs_meters":null,"size_class":null,"mass_kg":null,"dimensions":null,"purposes":["comms"],"wikipedia_slug":null,"has_3d_model":false,"image_url":null,"decayed_at":null,"tle_current":{"epoch":"2026-09-19T16:43:44.178240Z","epoch_age_seconds":103107,"freshness":"FRESH","line1":"1 48284U 21036J   26262.69703910 -.00001158  00000+0 -25569-4 0  9998","line2":"2 48284  53.1603 253.0060 0001498  80.4242 279.6928 15.31692786298127","mean_motion":15.31692786,"eccentricity":0.0001498,"inclination_deg":53.1603,"raan_deg":253.006,"arg_perigee_deg":80.4242,"mean_anomaly_deg":279.6928,"bstar":-2.5569e-5,"rev_number":29812,"period_min":94.013630746447,"perigee_km":469.73553487338,"apogee_km":471.78746486394,"semimajor_km":6848.8984998687,"source":"CELESTRAK","updated_at":"2026-09-20T09:00:38.928781Z"}}}